1998-067PK (43598 NORAD) Tracking and Keplerian Element Data

This shows tracking and keplerian element data for the satellite.

Feedback or suggestion? Click here.




ElementValue
Catalog43598
Name1998-067PK
Epoch Orbit11606
Epoch Day237.30871042
Epoch Year2020
RAAN275.6733
Inclination51.6101
Eccentricity0.0002578
Argument of Perigee315.8688
Mean Anonmoly44.2132
Mean Motion16.39524565
Decay Rate0.08160231
L11 43598U 98067PK 20237.30871042 .08160231 12416-4 62858-3 0 9999
L22 43598 51.6101 275.6733 0002578 315.8688 44.2132 16.39524565116065



Live tracking and technical data element details for 1998-067PK (NORAD 43598). 1998-067PK can be tracked NOW for your location showing map with azimuth and elevation plus other details from your city location.







IsCatalogInMostPopularTable: catalog: 43598, numindb: 685
Update: records affected: 1



GetName: 43598 1998-067PK

Hit Count: updated at: Thu, 16 Apr 2026 04:30:52 GMT